Location: Unspecified
(0.0000°N, 0.0000°E)
Time: 13:21:28
(UTC+00:00)

Altair - Visible Passes

Search period start: 01 November 2014 00:00
Search period end: 11 November 2014 00:00
Orbit: 1501 x 1683 km, 47.2° (Epoch: 31 October)

Date Brightness Start Highest point End Pass type
(mag) Time Alt. Az. Time Alt. Az. Time Alt. Az.
01 Nov 9.2 21:05:53 10° SSW 21:08:05 18° S 21:08:05 18° S visible
02 Nov 8.9 20:41:04 10° S 20:44:28 21° S 20:44:28 21° S visible
03 Nov 8.7 20:16:17 10° S 20:20:53 24° SSE 20:20:53 24° SSE visible
04 Nov 8.6 19:51:33 10° S 19:57:21 24° SE 19:57:21 24° SE visible
04 Nov 9.4 21:54:03 10° SW 21:55:23 16° SW 21:55:23 16° SW visible
05 Nov 8.6 19:26:53 10° S 19:33:24 21° SE 19:33:52 21° SE visible
05 Nov 9.0 21:28:52 10° SW 21:31:55 24° SW 21:31:55 24° SW visible
06 Nov 8.7 19:02:19 10° S 19:08:13 19° SE 19:10:25 17° ESE visible
06 Nov 8.5 21:03:43 10° SW 21:08:28 36° SW 21:08:28 36° SW visible
07 Nov 8.9 18:37:51 10° S 18:43:01 16° SE 18:47:02 12° ESE visible
07 Nov 7.9 20:38:36 10° SW 20:45:05 52° SW 20:45:05 52° SW visible
08 Nov 9.0 18:13:35 10° SSE 18:17:48 14° SE 18:21:59 10° ESE visible
08 Nov 7.4 20:13:31 10° SW 20:21:44 73° S 20:21:44 73° S visible
09 Nov 7.2 19:48:27 10° SSW 19:57:35 72° SE 19:58:26 68° E visible
09 Nov 9.6 21:55:32 10° W 21:56:30 13° W 21:56:30 13° W visible
10 Nov 7.4 19:23:25 10° SSW 19:32:29 64° SE 19:35:10 47° ENE visible
10 Nov 9.2 21:29:53 10° W 21:33:14 20° W 21:33:14 20° W visible
